Time,TemperatureF,DewpointF,PressureIn,WindDirection,WindDirectionDegrees,WindSpeedMPH,WindSpeedGustMPH,Humidity,HourlyPrecipIn,Conditions,Clouds,dailyrainin,SoftwareType,DateUTC
2013-04-16 00:00:00,34.7,24.1,30.17,North,32767,9.0,9.0,65,0.00,,,0.00,Wunderground v.1.15,2013-04-16 05:00:00,
2013-04-16 00:10:00,34.4,23.8,30.16,North,32767,8.0,8.0,65,0.00,,,0.00,Wunderground v.1.15,2013-04-16 05:10:00,
2013-04-16 00:20:00,34.0,24.2,30.16,North,32767,9.0,12.0,67,0.00,,,0.00,Wunderground v.1.15,2013-04-16 05:20:00,
2013-04-16 00:30:00,33.3,24.6,30.17,North,32767,12.0,12.0,70,0.00,,,0.00,Wunderground v.1.15,2013-04-16 05:30:00,
2013-04-16 00:40:00,32.8,25.1,30.18,North,32767,10.0,10.0,73,0.00,,,0.00,Wunderground v.1.15,2013-04-16 05:40:00,
2013-04-16 00:50:00,31.8,26.0,30.18,North,32767,9.0,15.0,79,0.00,,,0.00,Wunderground v.1.15,2013-04-16 05:50:00,
2013-04-16 01:00:00,31.3,26.1,30.20,North,32767,10.0,10.0,81,0.00,,,0.00,Wunderground v.1.15,2013-04-16 06:00:00,
2013-04-16 01:10:00,30.8,26.5,30.20,North,32767,7.0,12.0,84,0.00,,,0.00,Wunderground v.1.15,2013-04-16 06:10:00,
2013-04-16 01:20:00,30.3,26.6,30.19,North,32767,6.0,6.0,86,0.00,,,0.00,Wunderground v.1.15,2013-04-16 06:20:00,
2013-04-16 01:30:00,29.9,26.8,30.20,North,32767,7.0,12.0,88,0.00,,,0.00,Wunderground v.1.15,2013-04-16 06:30:00,
2013-04-16 01:40:00,29.6,27.0,30.20,North,32767,8.0,8.0,90,0.00,,,0.00,Wunderground v.1.15,2013-04-16 06:40:00,
2013-04-16 01:50:00,29.4,27.1,30.20,North,32767,8.0,12.0,91,0.00,,,0.00,Wunderground v.1.15,2013-04-16 06:50:00,
2013-04-16 02:00:00,29.2,27.2,30.21,North,32767,8.0,8.0,92,0.00,,,0.00,Wunderground v.1.15,2013-04-16 07:00:00,
2013-04-16 02:10:00,29.1,27.3,30.21,North,32767,7.0,7.0,93,0.00,,,0.00,Wunderground v.1.15,2013-04-16 07:10:00,
2013-04-16 02:20:00,29.1,27.3,30.21,North,32767,6.0,6.0,93,0.00,,,0.00,Wunderground v.1.15,2013-04-16 07:20:00,
2013-04-16 02:30:00,29.1,27.3,30.22,North,32767,5.0,12.0,93,0.00,,,0.00,Wunderground v.1.15,2013-04-16 07:30:00,
2013-04-16 02:40:00,29.0,27.2,30.22,North,32767,5.0,12.0,93,0.00,,,0.00,Wunderground v.1.15,2013-04-16 07:40:00,
2013-04-16 02:50:00,29.0,27.5,30.22,North,32767,5.0,5.0,94,0.00,,,0.00,Wunderground v.1.15,2013-04-16 07:50:00,
2013-04-16 03:00:00,29.0,27.5,30.22,North,32767,3.0,3.0,94,0.00,,,0.00,Wunderground v.1.15,2013-04-16 08:00:00,
2013-04-16 03:10:00,28.9,27.4,30.22,North,32767,3.0,3.0,94,0.00,,,0.00,Wunderground v.1.15,2013-04-16 08:10:00,
2013-04-16 03:20:00,28.9,27.4,30.22,North,32767,3.0,3.0,94,0.00,,,0.00,Wunderground v.1.15,2013-04-16 08:20:00,
2013-04-16 03:30:00,28.8,27.3,30.22,North,32767,3.0,4.0,94,0.00,,,0.00,Wunderground v.1.15,2013-04-16 08:30:00,
2013-04-16 03:40:00,28.8,27.3,30.22,North,32767,1.0,1.0,94,0.00,,,0.00,Wunderground v.1.15,2013-04-16 08:40:00,
2013-04-16 03:50:00,28.8,27.3,30.22,North,32767,1.0,8.0,94,0.00,,,0.00,Wunderground v.1.15,2013-04-16 08:50:00,
2013-04-16 04:00:00,28.8,27.3,30.22,North,32767,1.0,8.0,94,0.00,,,0.00,Wunderground v.1.15,2013-04-16 09:00:00,
2013-04-16 04:10:00,28.8,27.3,30.22,North,32767,1.0,1.0,94,0.00,,,0.00,Wunderground v.1.15,2013-04-16 09:10:00,
2013-04-16 04:20:00,28.9,27.4,30.22,North,32767,2.0,8.0,94,0.00,,,0.00,Wunderground v.1.15,2013-04-16 09:20:00,
2013-04-16 04:30:00,28.9,27.4,30.22,North,32767,2.0,8.0,94,0.00,,,0.00,Wunderground v.1.15,2013-04-16 09:30:00,
2013-04-16 04:40:00,29.0,27.5,30.22,North,32767,3.0,8.0,94,0.00,,,0.00,Wunderground v.1.15,2013-04-16 09:40:00,
2013-04-16 04:50:00,29.0,27.5,30.22,North,32767,3.0,8.0,94,0.00,,,0.00,Wunderground v.1.15,2013-04-16 09:50:00,
2013-04-16 05:00:00,29.0,27.5,30.22,North,32767,3.0,8.0,94,0.00,,,0.00,Wunderground v.1.15,2013-04-16 10:00:00,
2013-04-16 05:10:00,28.9,27.4,30.22,North,32767,4.0,8.0,94,0.00,,,0.00,Wunderground v.1.15,2013-04-16 10:10:00,
2013-04-16 05:20:00,28.9,27.4,30.21,North,32767,5.0,5.0,94,0.00,,,0.00,Wunderground v.1.15,2013-04-16 10:20:00,
2013-04-16 05:30:00,28.8,27.3,30.21,North,32767,4.0,8.0,94,0.00,,,0.00,Wunderground v.1.15,2013-04-16 10:30:00,
2013-04-16 05:40:00,28.8,27.3,30.21,North,32767,4.0,8.0,94,0.00,,,0.00,Wunderground v.1.15,2013-04-16 10:40:00,
2013-04-16 05:50:00,28.8,27.3,30.21,North,32767,4.0,8.0,94,0.00,,,0.00,Wunderground v.1.15,2013-04-16 10:50:00,
2013-04-16 06:00:00,28.8,27.3,30.21,North,32767,4.0,8.0,94,0.00,,,0.00,Wunderground v.1.15,2013-04-16 11:00:00,
2013-04-16 06:10:00,28.8,27.5,30.21,North,32767,5.0,5.0,95,0.00,,,0.00,Wunderground v.1.15,2013-04-16 11:10:00,
2013-04-16 06:20:00,28.8,27.3,30.21,North,32767,5.0,8.0,94,0.00,,,0.00,Wunderground v.1.15,2013-04-16 11:20:00,
2013-04-16 06:30:00,28.9,27.4,30.22,North,32767,5.0,8.0,94,0.00,,,0.00,Wunderground v.1.15,2013-04-16 11:30:00,
2013-04-16 06:40:00,28.9,27.4,30.22,North,32767,5.0,8.0,94,0.00,,,0.00,Wunderground v.1.15,2013-04-16 11:40:00,
2013-04-16 06:50:00,28.9,27.4,30.22,North,32767,5.0,8.0,94,0.00,,,0.00,Wunderground v.1.15,2013-04-16 11:50:00,
2013-04-16 07:00:00,28.9,27.4,30.22,North,32767,5.0,8.0,94,0.00,,,0.00,Wunderground v.1.15,2013-04-16 12:00:00,
2013-04-16 07:10:00,29.0,27.5,30.22,North,32767,5.0,8.0,94,0.00,,,0.00,Wunderground v.1.15,2013-04-16 12:10:00,
2013-04-16 07:20:00,29.0,27.5,30.22,North,32767,5.0,8.0,94,0.00,,,0.00,Wunderground v.1.15,2013-04-16 12:20:00,
2013-04-16 07:30:00,29.1,27.6,30.23,North,32767,5.0,8.0,94,0.00,,,0.00,Wunderground v.1.15,2013-04-16 12:30:00,
2013-04-16 07:40:00,29.2,27.9,30.23,North,32767,4.0,4.0,95,0.00,,,0.00,Wunderground v.1.15,2013-04-16 12:40:00,
2013-04-16 07:50:00,29.2,27.7,30.23,North,32767,4.0,8.0,94,0.00,,,0.00,Wunderground v.1.15,2013-04-16 12:50:00,
2013-04-16 08:00:00,29.3,27.8,30.24,North,32767,4.0,8.0,94,0.00,,,0.00,Wunderground v.1.15,2013-04-16 13:00:00,
2013-04-16 08:10:00,29.4,27.9,30.24,North,32767,5.0,8.0,94,0.00,,,0.00,Wunderground v.1.15,2013-04-16 13:10:00,
2013-04-16 08:20:00,29.5,28.0,30.24,North,32767,5.0,5.0,94,0.00,,,0.00,Wunderground v.1.15,2013-04-16 13:20:00,
2013-04-16 08:30:00,29.7,28.2,30.25,North,32767,4.0,8.0,94,0.00,,,0.00,Wunderground v.1.15,2013-04-16 13:30:00,
2013-04-16 08:40:00,29.8,28.0,30.25,North,32767,5.0,8.0,93,0.00,,,0.00,Wunderground v.1.15,2013-04-16 13:40:00,
2013-04-16 08:50:00,30.1,28.1,30.26,North,32767,5.0,8.0,92,0.00,,,0.00,Wunderground v.1.15,2013-04-16 13:50:00,
2013-04-16 09:00:00,30.4,28.4,30.25,North,32767,5.0,8.0,92,0.00,,,0.00,Wunderground v.1.15,2013-04-16 14:00:00,
2013-04-16 09:10:00,30.6,28.0,30.26,North,32767,4.0,8.0,90,0.00,,,0.00,Wunderground v.1.15,2013-04-16 14:10:00,
2013-04-16 09:20:00,30.9,28.0,30.26,North,32767,4.0,8.0,89,0.00,,,0.00,Wunderground v.1.15,2013-04-16 14:20:00,
2013-04-16 09:30:00,31.2,27.8,30.27,North,32767,4.0,4.0,87,0.00,,,0.00,Wunderground v.1.15,2013-04-16 14:30:00,
2013-04-16 09:40:00,31.6,28.2,30.26,North,32767,3.0,8.0,87,0.00,,,0.00,Wunderground v.1.15,2013-04-16 14:40:00,
2013-04-16 09:50:00,32.0,28.6,30.26,North,32767,4.0,8.0,87,0.00,,,0.00,Wunderground v.1.15,2013-04-16 14:50:00,
2013-04-16 10:00:00,32.3,28.6,30.26,North,32767,5.0,5.0,86,0.00,,,0.00,Wunderground v.1.15,2013-04-16 15:00:00,
2013-04-16 10:10:00,32.6,28.9,30.26,North,32767,6.0,6.0,86,0.00,,,0.00,Wunderground v.1.15,2013-04-16 15:10:00,
2013-04-16 10:20:00,32.8,28.5,30.27,North,32767,5.0,8.0,84,0.00,,,0.00,Wunderground v.1.15,2013-04-16 15:20:00,
2013-04-16 10:30:00,32.9,28.3,30.27,North,32767,6.0,8.0,83,0.00,,,0.00,Wunderground v.1.15,2013-04-16 15:30:00,
2013-04-16 10:40:00,33.1,28.2,30.27,North,32767,8.0,8.0,82,0.00,,,0.00,Wunderground v.1.15,2013-04-16 15:40:00,
2013-04-16 10:50:00,33.6,28.7,30.28,North,32767,6.0,6.0,82,0.00,,,0.00,Wunderground v.1.15,2013-04-16 15:50:00,
2013-04-16 11:00:00,33.9,28.7,30.28,North,32767,5.0,8.0,81,0.00,,,0.00,Wunderground v.1.15,2013-04-16 16:00:00,
2013-04-16 11:10:00,34.0,28.8,30.28,North,32767,7.0,7.0,81,0.00,,,0.00,Wunderground v.1.15,2013-04-16 16:10:00,
2013-04-16 11:20:00,34.3,28.8,30.28,North,32767,5.0,9.0,80,0.00,,,0.00,Wunderground v.1.15,2013-04-16 16:20:00,
2013-04-16 11:30:00,34.2,28.4,30.27,North,32767,9.0,9.0,79,0.00,,,0.00,Wunderground v.1.15,2013-04-16 16:30:00,
2013-04-16 11:40:00,34.0,28.2,30.27,North,32767,8.0,8.0,79,0.00,,,0.00,Wunderground v.1.15,2013-04-16 16:40:00,
2013-04-16 11:50:00,33.8,28.6,30.28,North,32767,6.0,6.0,81,0.00,,,0.00,Wunderground v.1.15,2013-04-16 16:50:00,
2013-04-16 12:10:00,34.1,29.2,30.27,North,32767,5.0,8.0,82,0.00,,,0.01,Wunderground v.1.15,2013-04-16 17:10:00,
2013-04-16 12:20:00,34.2,29.0,30.27,North,32767,6.0,8.0,81,0.04,,,0.02,Wunderground v.1.15,2013-04-16 17:20:00,
2013-04-16 12:30:00,34.7,29.8,30.27,North,32767,5.0,8.0,82,0.04,,,0.02,Wunderground v.1.15,2013-04-16 17:30:00,
2013-04-16 12:40:00,34.9,29.0,30.27,North,32767,6.0,8.0,79,0.00,,,0.03,Wunderground v.1.15,2013-04-16 17:40:00,
2013-04-16 12:50:00,35.6,29.7,30.26,North,32767,7.0,8.0,79,0.00,,,0.03,Wunderground v.1.15,2013-04-16 17:50:00,
2013-04-16 13:00:00,35.9,29.4,30.26,North,32767,6.0,8.0,77,0.00,,,0.04,Wunderground v.1.15,2013-04-16 18:00:00,
2013-04-16 13:10:00,36.7,30.5,30.25,North,32767,7.0,7.0,78,0.04,,,0.05,Wunderground v.1.15,2013-04-16 18:10:00,
2013-04-16 13:20:00,36.9,30.4,30.25,North,32767,6.0,6.0,77,0.04,,,0.05,Wunderground v.1.15,2013-04-16 18:20:00,
2013-04-16 13:30:00,37.4,30.2,30.24,North,32767,7.0,8.0,75,0.00,,,0.05,Wunderground v.1.15,2013-04-16 18:30:00,
2013-04-16 13:40:00,37.3,30.1,30.24,North,32767,8.0,8.0,75,0.00,,,0.06,Wunderground v.1.15,2013-04-16 18:40:00,
2013-04-16 13:50:00,38.0,29.8,30.23,North,32767,8.0,8.0,72,0.00,,,0.06,Wunderground v.1.15,2013-04-16 18:50:00,
2013-04-16 14:00:00,37.5,30.3,30.23,North,32767,8.0,8.0,75,0.00,,,0.06,Wunderground v.1.15,2013-04-16 19:00:00,
2013-04-16 14:10:00,37.7,29.5,30.22,North,32767,9.0,9.0,72,0.00,,,0.06,Wunderground v.1.15,2013-04-16 19:10:00,
2013-04-16 14:20:00,38.3,29.7,30.21,North,32767,10.0,11.0,71,0.00,,,0.06,Wunderground v.1.15,2013-04-16 19:20:00,
2013-04-16 14:30:00,38.9,30.3,30.20,North,32767,10.0,10.0,71,0.00,,,0.06,Wunderground v.1.15,2013-04-16 19:30:00,
2013-04-16 14:40:00,39.2,29.2,30.20,North,32767,10.0,10.0,67,0.00,,,0.06,Wunderground v.1.15,2013-04-16 19:40:00,
2013-04-16 14:50:00,39.6,29.5,30.20,North,32767,9.0,9.0,67,0.00,,,0.06,Wunderground v.1.15,2013-04-16 19:50:00,
2013-04-16 15:00:00,40.1,29.6,30.19,North,32767,9.0,10.0,66,0.00,,,0.06,Wunderground v.1.15,2013-04-16 20:00:00,
2013-04-16 15:10:00,40.4,30.3,30.19,North,32767,9.0,12.0,67,0.00,,,0.06,Wunderground v.1.15,2013-04-16 20:10:00,
2013-04-16 15:20:00,40.2,29.7,30.18,North,32767,10.0,10.0,66,0.00,,,0.06,Wunderground v.1.15,2013-04-16 20:20:00,
2013-04-16 15:30:00,40.5,28.9,30.18,North,32767,9.0,13.0,63,0.00,,,0.06,Wunderground v.1.15,2013-04-16 20:30:00,
2013-04-16 15:40:00,41.1,29.5,30.18,North,32767,10.0,13.0,63,0.00,,,0.06,Wunderground v.1.15,2013-04-16 20:40:00,
2013-04-16 15:50:00,40.7,28.3,30.17,North,32767,12.0,14.0,61,0.00,,,0.06,Wunderground v.1.15,2013-04-16 20:50:00,
2013-04-16 16:00:00,41.3,29.3,30.17,North,32767,9.0,9.0,62,0.00,,,0.06,Wunderground v.1.15,2013-04-16 21:00:00,
2013-04-16 16:10:00,41.3,28.0,30.17,North,32767,11.0,12.0,59,0.00,,,0.06,Wunderground v.1.15,2013-04-16 21:10:00,